Content
SEND FEEDBACK

Daily
Averages
Monthly
Summary
United States of America

STATEN ISLAND, NEW YORK


Home > North America > United States > New York
Elevation: 152 feet     Latitude: 40 35N     Longitude: 074 09W

WEATHER
 
SELECT A DAY
Number of Records: 189,786;   Date Range: 1/1/95 - 8/30/14
 
SHARE

PRINT THIS DATA

[ ← Previous Day ]
WEATHER ALMANAC - MAY 1, 2013
[ Next Day → ]
[ °C ]   °F
Weather ElementAverageHighLow
Temperature55.9 °F64 °F (11:51 am)44.1 °F (5:51 am)
Dewpoint37.5 °F44.6 °F (7:36 pm)25 °F (11:51 am)
Humidity52.2 %69 % (8:51 pm)23 % (11:51 am)
Barometer30.43 in30.49 in (9:51 pm)30.35 in (1:51 am)
Wind Speed6.9 mph12.7 mph (3:51 pm)
Wind Gust19.6 mph (1:51 pm)
Weather ElementAverage
Visibility10 mi
Wind DirectionE (91.7 °)

Weather ElementTotal
Precipitation---
Heating Degree Days11 (Base 65)
Growing Degree Days4.1 (Base 50)
Averaged from 24 records on May 1, 2013
WEATHER CONDITIONS BREAKOUT
WIND DIRECTION BREAKOUT
WEATHER BY HOUR - MAY 1, 2013
[ °C ]   °F
Local TimeTemperatureDewpointHumidityBarometerVisibilityWind DirectionWind SpeedGust SpeedPrecipitationEventsConditions
1:51 AM53.1 °F30.9 °F43 %30.35 in10.0 miCalmClear
2:51 AM48.9 °F32.0 °F52 %30.35 in10.0 miNorth (360°)3.5 mphClear
3:51 AM45.0 °F32.0 °F60 %30.36 in10.0 miNNE (20°)6.9 mphClear
4:51 AM46.0 °F33.1 °F61 %30.37 in10.0 miNNE (20°)8.1 mphClear
5:51 AM44.1 °F33.1 °F65 %30.39 in10.0 miNorth (10°)6.9 mphPartly Cloudy
6:51 AM48.0 °F35.1 °F61 %30.41 in10.0 miNNE (20°)8.1 mphPartly Cloudy
7:51 AM54.0 °F34.0 °F47 %30.43 in10.0 miNNE (30°)5.8 mphPartly Cloudy
8:51 AM57.0 °F33.1 °F40 %30.44 in10.0 miNE (40°)5.8 mphPartly Cloudy
9:51 AM61.0 °F28.9 °F30 %30.44 in10.0 miNE (40°)6.9 mphPartly Cloudy
10:51 AM62.1 °F26.1 °F25 %30.45 in10.0 miNE (50°)11.5 mphPartly Cloudy
11:51 AM64.0 °F25.0 °F23 %30.44 in10.0 miENE (70°)11.5 mphClear
12:51 PM64.0 °F39.0 °F40 %30.44 in10.0 miSouth (170°)9.2 mphPartly Cloudy
1:51 PM64.0 °F42.1 °F45 %30.44 in10.0 miESE (110°)10.4 mph19.6 mphScattered Clouds
2:51 PM63.0 °F43.0 °F48 %30.43 in10.0 miESE (120°)10.4 mph19.6 mphPartly Cloudy
3:51 PM62.1 °F43.0 °F50 %30.44 in10.0 miSE (140°)12.7 mph19.6 mphPartly Cloudy
4:51 PM63.0 °F43.0 °F48 %30.44 in10.0 miSE (140°)10.4 mph19.6 mphScattered Clouds
5:51 PM60.1 °F43.0 °F53 %30.45 in10.0 miSE (130°)9.2 mph17.3 mphScattered Clouds
6:51 PM59.0 °F43.0 °F55 %30.46 in10.0 miESE (110°)8.1 mphPartly Cloudy
7:36 PM55.4 °F44.6 °F67 %30.46 in10.0 miSSE (160°)5.8 mphPartly Cloudy
7:51 PM55.9 °F44.1 °F64 %30.47 in10.0 miSSE (160°)6.9 mphPartly Cloudy
8:51 PM54.0 °F44.1 °F69 %30.48 in10.0 miSSE (150°)4.6 mphPartly Cloudy
9:51 PM53.1 °F43.0 °F69 %30.49 in10.0 miSSE (150°)3.5 mphClear
10:51 PM53.1 °F43.0 °F69 %30.48 in10.0 miCalmClear
11:51 PM52.0 °F42.1 °F69 %30.48 in10.0 miCalmClear
Hourly data recorded from KEWR, located miles away from Staten Island, New York







STORIES FROM OUR PARTNERS